Home > Weather > Beirut > Past weeks

Flag for Lebanon Weather for the Past 2 Weeks in Beirut, Lebanon

Now
55 °F

Passing clouds.


Feels Like: 54 °F
Forecast: 57 / 62 °F
Wind: 7 mph from Northwest

Location: Beirut Airport

Current Time: Feb 10, 2016 at 3:13:32 AM

Latest Report: Feb 10, 2016 at 2:00 AM


Visibility: N/A

Pressure: 30.12 "Hg

Humidity: 51%

Dew point: 37 °F

Location of BeirutLocation

Historic Weather in Beirut — Graph

°F

Beirut Temperature Yesterday

Maximum temperature yesterday: 63 °F (at 11:00 AM)
Minimum temperature yesterday: 52 °F (at 2:00 AM)
Average temperature yesterday: 57 °F

High & Low Weather Summary for the Past Weeks

 TemperatureHumidityPressure
High75 °F (Feb 5, 1:00 PM)88% (Feb 6, 6:00 AM)30.48 "Hg (Feb 6, 6:00 AM)
Low39 °F (Jan 28, 7:00 AM)19% (Jan 28, 1:00 PM)29.86 "Hg (Feb 7, 12:00 AM)
Average56 °F57%30.24 "Hg
* Reported Jan 26 1:00 AM — Feb 10 1:00 AM, Beirut, Weather by CustomWeather, © 2016

Note: Actual official high and low records may vary slightly from our data, if they occured in-between our weather recording intervals... More about our weather records

Advertising

Beirut Weather History for the Previous 24 Hours

 ConditionsComfort  
Time TempWeatherWind HumidityBarometerVisibility
1:00 AM
Wed, Feb 10
59 °FPassing clouds.8 mph42%30.12 "HgN/A
12:00 AM57 °FPassing clouds.8 mph48%30.15 "HgN/A
11:00 PM
Tue, Feb 9
57 °FPassing clouds.5 mph48%30.18 "HgN/A
10:00 PM55 °FClear.3 mph55%30.18 "Hg10 mi
9:00 PM55 °FPassing clouds.5 mph55%30.21 "HgN/A
8:00 PM57 °FPassing clouds.3 mph55%30.21 "HgN/A
7:00 PM59 °FPassing clouds.5 mph51%30.24 "HgN/A
6:00 PM61 °FPassing clouds.8 mph48%30.21 "HgN/A
5:00 PM61 °FScattered clouds.9 mph45%30.21 "HgN/A
4:00 PM61 °FSunny.12 mph48%30.21 "Hg10 mi
3:00 PM61 °FPassing clouds.10 mph45%30.21 "HgN/A
2:00 PM61 °FSunny.12 mph48%30.24 "Hg10 mi
1:00 PM61 °FSunny.10 mph45%30.24 "Hg10 mi
12:00 PM63 °FSunny.10 mph45%30.27 "Hg10 mi
11:00 AM63 °FPassing clouds.9 mph45%30.27 "HgN/A
10:00 AM61 °FSunny.6 mph39%30.30 "Hg10 mi
9:00 AM59 °FSunny.2 mph42%30.30 "Hg10 mi
8:00 AM55 °FPassing clouds.3 mph51%30.30 "Hg5 mi
7:00 AM52 °FPassing clouds.6 mph54%30.30 "Hg5 mi
6:00 AM52 °FPassing clouds.6 mph54%30.30 "Hg5 mi
5:00 AM52 °FPassing clouds.7 mph54%30.27 "Hg5 mi
4:00 AM52 °FPassing clouds.6 mph58%30.30 "Hg5 mi
3:00 AM52 °FPassing clouds.6 mph58%30.30 "Hg5 mi
Weather by CustomWeather, © 2016

See weather overviewHow to use our weather pages